Wind_Speed
11 12 13 15 16 17 18 19 20 21 22 25 26 27 27 28 29 29 31 32 33 34 36 37 38 38 38 39 42 42 42 41 41 41 41 40 40 40 38 38 36 35 34 34
12 12 13 14 14 15 16 17 18 19 21 23 25 27 27 27 27 29 30 30 32 33 35 37 37 38 37 37 39 41 42 42 41 41 42 41 40 40 40 39 38 36 35 35
13 12 12 14 14 14 14 15 17 19 20 21 23 25 26 27 28 28 28 30 31 33 35 36 37 37 38 37 38 39 41 41 42 42 42 42 41 41 41 40 39 38 37 36
11 11 12 13 13 13 13 14 16 18 19 20 23 25 26 26 28 28 28 29 30 31 33 34 36 37 38 38 38 39 39 40 41 42 42 43 42 41 41 41 40 39 39 37
12 12 12 12 13 13 13 13 15 16 17 20 21 24 24 26 27 28 28 28 30 30 31 32 33 36 37 38 39 39 40 40 41 41 42 43 42 42 42 41 41 39 39 38
12 12 11 10 12 13 13 13 13 14 16 18 20 23 23 24 26 27 28 28 30 30 31 32 32 34 36 37 39 39 39 40 40 41 42 43 43 42 42 42 41 39 38 39
12 11 10 9 11 12 12 14 15 16 17 18 19 21 21 22 24 25 27 28 29 30 31 31 32 32 34 36 38 38 39 39 40 41 42 42 43 44 43 41 41 41 39 39
11 11 10 10 11 12 12 13 15 16 18 18 19 20 20 21 23 24 26 27 28 29 31 31 32 32 33 35 37 38 38 38 39 40 41 42 43 44 44 42 41 41 40 40
12 12 12 11 11 12 13 13 15 17 18 19 20 20 20 21 22 23 24 26 27 29 30 31 31 33 34 35 36 37 38 38 38 40 41 41 41 43 43 43 41 41 41 40
15 14 13 12 12 12 13 13 15 17 19 20 21 20 21 22 23 24 25 26 28 29 30 30 31 32 33 34 36 37 37 38 38 40 41 41 41 42 42 43 42 41 41 41
16 16 15 14 14 14 14 15 15 17 18 20 21 20 21 22 23 25 25 27 28 29 30 31 31 31 32 33 35 36 37 38 39 39 40 40 40 41 42 42 42 42 41 41
17 17 17 17 17 16 16 16 17 18 18 20 21 20 20 22 23 25 26 27 28 29 29 30 31 32 33 34 35 36 37 38 38 39 39 40 40 41 41 41 42 42 41 41
18 18 18 18 19 18 19 19 18 18 19 20 21 20 20 22 23 24 25 27 28 29 29 29 30 31 32 33 35 36 37 38 38 39 39 40 40 40 41 41 42 43 42 41
19 19 19 19 19 20 21 21 20 21 21 21 20 20 20 21 22 23 25 26 27 28 29 30 31 31 32 33 34 35 37 37 38 38 39 39 40 40 40 41 42 42 42 42
19 19 19 19 20 21 22 22 22 22 22 22 22 22 22 22 22 23 24 25 26 28 29 30 31 31 32 32 33 34 36 36 37 37 38 39 40 40 40 40 41 41 41 41
20 20 20 20 21 22 22 22 22 21 21 22 22 22 23 23 24 25 25 25 26 28 29 29 30 31 32 33 33 34 35 37 37 37 38 38 39 39 40 39 40 40 40 41
22 22 22 22 22 23 22 21 22 21 20 21 22 22 23 24 24 25 26 26 26 28 29 30 30 31 31 32 33 34 35 36 37 38 38 38 38 39 39 40 40 40 40 41
23 23 24 24 24 25 22 22 21 21 20 20 21 23 24 25 25 25 25 26 27 28 29 29 31 31 31 31 32 33 34 35 37 38 38 38 39 39 39 39 40 40 40 41
23 24 25 25 25 25 24 23 22 22 21 20 21 21 22 23 24 25 26 27 28 28 28 29 29 30 31 31 32 33 34 35 37 37 37 38 39 39 40 39 39 40 40 40
24 24 25 25 25 25 24 24 24 24 22 21 21 21 22 22 23 23 25 26 28 28 28 29 29 29 30 31 31 32 34 35 36 36 36 37 38 39 39 39 39 39 39 39
25 26 26 26 26 25 23 24 25 25 23 22 22 21 21 22 22 23 24 25 26 27 28 28 29 29 29 30 31 31 32 33 35 35 34 34 36 37 37 38 38 37 38 38
25 26 26 26 26 24 24 24 25 26 25 24 23 23 23 23 23 23 24 26 26 27 28 28 29 29 29 29 30 30 31 32 34 35 36 35 34 35 36 36 35 36 37 38
26 25 26 26 24 24 24 25 26 27 26 25 25 24 24 25 25 25 25 26 27 28 29 29 30 30 30 30 30 30 31 32 33 34 35 36 35 34 35 35 35 35 36 37
25 25 26 25 24 25 25 25 26 26 26 26 25 24 25 25 26 26 27 27 28 28 29 30 30 30 30 30 31 31 31 32 33 33 34 34 35 35 35 35 35 35 36 36
26 26 25 25 25 26 26 26 26 26 26 25 25 25 25 26 26 27 27 27 28 28 28 29 29 29 30 31 31 31 31 32 32 32 33 33 33 34 34 34 34 34 34 35
25 26 26 26 26 26 26 26 26 26 25 25 25 25 25 26 27 27 27 27 28 28 28 28 29 29 30 30 30 30 31 31 31 31 31 32 32 33 33 33 33 34 34 35
Wind_Direction
299 279 269 258 256 253 250 249 246 241 238 238 235 234 233 235 235 235 234 232 231 228 228 230 231 232 232 234 234 235 236 236 236 236 237 239 241 242 244 246 249 251 253 255
300 286 274 260 256 253 252 253 248 244 242 241 238 234 235 236 236 235 234 234 232 230 229 231 233 233 233 234 235 236 236 236 236 236 237 240 242 244 245 248 249 251 254 256
306 291 274 261 254 250 255 254 250 248 245 243 242 237 236 236 237 237 236 234 233 232 231 232 233 234 235 235 236 237 237 237 237 238 239 241 243 245 247 249 251 252 255 257
308 298 283 268 257 252 256 251 250 251 250 247 247 243 237 238 239 239 238 236 235 235 235 234 235 236 236 236 236 237 238 239 239 239 240 242 243 244 245 249 252 254 256 258
308 299 293 277 260 256 257 253 253 254 253 253 252 250 243 241 240 240 240 239 237 238 238 237 237 237 237 237 236 238 240 241 240 240 241 241 243 245 246 248 252 254 256 257
309 301 294 279 268 263 256 254 256 255 254 255 253 254 246 244 243 242 242 242 240 241 240 239 240 239 239 239 239 239 240 241 242 240 241 241 243 245 246 248 250 253 254 257
303 298 291 282 272 264 257 255 258 260 258 255 255 253 249 246 246 244 243 244 242 242 243 242 243 243 241 241 240 241 242 242 242 242 243 243 244 245 246 249 250 254 256 257
298 292 290 288 278 268 261 263 262 263 262 258 256 255 252 249 247 245 244 244 245 244 244 245 244 245 244 242 241 241 242 243 243 244 245 245 246 246 247 250 252 255 257 257
292 293 293 289 282 268 267 268 267 268 270 267 263 258 252 251 250 246 244 244 245 244 245 246 246 247 245 244 243 243 243 244 244 244 245 246 247 247 248 250 252 253 256 258
296 292 289 284 278 268 266 270 274 272 271 271 267 261 258 254 254 251 248 248 247 245 245 246 246 246 247 246 244 243 244 244 245 246 246 246 248 249 250 251 252 254 256 258
296 290 286 277 276 275 269 268 275 278 272 272 272 267 263 259 257 255 251 251 250 248 248 247 246 247 248 248 247 246 246 247 247 248 248 249 249 250 251 252 252 254 256 257
292 290 286 276 276 278 271 269 274 276 276 274 273 270 264 261 261 258 254 253 253 250 250 249 249 249 250 250 250 249 248 248 249 249 250 251 251 251 252 253 254 254 256 257
290 288 288 280 276 275 272 272 275 275 276 275 272 269 264 262 261 259 256 254 254 252 250 250 252 251 252 252 251 250 249 249 249 250 250 251 252 252 254 255 255 255 255 257
292 288 287 286 281 277 274 276 277 277 275 274 272 270 265 265 261 259 256 254 253 253 253 253 253 253 253 254 253 251 250 250 251 251 251 252 252 253 255 256 256 256 257 258
292 292 291 288 283 281 278 278 277 278 277 273 273 270 268 266 262 260 259 257 255 254 255 255 254 254 255 256 255 253 251 251 251 251 252 253 253 254 255 255 256 257 258 259
291 290 290 289 285 283 279 279 278 279 278 274 271 269 267 266 266 262 260 260 258 255 255 257 257 256 256 258 257 255 253 252 252 252 253 254 255 255 255 256 257 259 259 260
291 291 290 289 286 283 281 280 278 282 283 279 273 270 268 265 264 263 261 259 259 257 257 257 258 259 258 258 259 257 255 254 253 253 253 254 255 256 256 256 257 259 260 261
288 290 290 290 289 286 283 280 279 281 284 284 279 274 272 269 266 265 263 261 260 259 258 258 260 260 260 259 259 259 256 255 255 255 255 255 256 256 256 257 257 258 259 261
287 288 289 290 291 288 282 279 279 280 283 284 282 279 276 272 269 267 266 263 262 262 261 261 262 262 262 261 261 260 258 257 256 256 257 257 256 257 257 258 258 259 259 259
285 286 287 288 289 289 282 278 278 279 282 284 283 282 278 274 271 268 267 266 265 266 265 264 264 265 265 264 264 263 260 258 257 257 257 257 257 258 258 258 259 259 259 259
285 284 285 286 287 286 282 280 278 281 284 283 282 282 280 275 273 271 270 269 268 267 268 267 266 267 267 266 265 264 261 259 258 258 258 258 258 259 259 260 259 260 260 260
287 286 285 285 285 284 282 281 280 281 281 281 282 279 278 276 274 272 271 271 270 270 269 269 269 268 267 266 265 264 263 262 260 259 259 259 258 258 258 260 261 261 261 261
286 286 283 284 284 282 282 280 280 279 279 281 282 279 278 278 277 274 273 272 271 270 270 269 269 268 267 267 266 265 264 264 264 263 262 260 259 259 260 261 261 261 261 261
286 285 285 284 284 283 283 282 281 280 280 280 281 280 279 279 279 278 275 274 274 273 272 271 269 267 267 267 266 266 266 265 266 265 264 263 262 260 261 262 262 262 263 263
284 284 287 288 286 284 283 282 280 280 280 279 279 279 279 280 280 279 277 276 276 276 274 272 270 268 267 267 267 266 266 266 266 266 264 264 264 264 262 262 262 262 263 264
284 285 286 286 285 284 283 282 280 280 280 280 279 280 281 280 280 280 279 278 278 277 275 272 270 269 268 268 268 268 268 268 267 266 265 264 264 265 264 263 263 263 264 264
Height
5657 5657 5657 5658 5659 5661 5662 5664 5666 5669 5672 5675 5678 5682 5685 5688 5691 5695 5698 5702 5706 5710 5714 5719 5723 5727 5731 5735 5740 5744 5749 5753 5758 5762 5766 5769 5772 5775 5778 5780 5782 5784 5787 5788
5655 5654 5655 5654 5655 5657 5658 5660 5663 5666 5667 5670 5673 5676 5679 5682 5686 5689 5693 5696 5700 5704 5708 5712 5716 5720 5724 5729 5733 5737 5741 5745 5750 5754 5758 5761 5764 5767 5770 5772 5774 5777 5779 5780
5652 5652 5650 5651 5652 5654 5655 5657 5659 5662 5664 5665 5668 5671 5674 5677 5680 5683 5687 5690 5694 5698 5701 5705 5709 5713 5717 5721 5725 5729 5733 5737 5741 5745 5749 5753 5756 5759 5762 5764 5766 5769 5770 5771
5649 5648 5648 5648 5649 5650 5653 5654 5656 5657 5659 5661 5664 5666 5670 5672 5675 5678 5682 5685 5689 5692 5695 5698 5702 5705 5710 5714 5718 5722 5725 5729 5733 5737 5741 5744 5747 5750 5753 5756 5758 5760 5762 5763
5647 5646 5645 5645 5646 5648 5649 5651 5653 5654 5655 5657 5659 5660 5666 5667 5670 5673 5676 5679 5683 5686 5689 5692 5695 5698 5702 5706 5710 5714 5717 5721 5724 5728 5732 5735 5738 5741 5744 5747 5749 5751 5753 5755
5645 5644 5643 5643 5644 5645 5646 5648 5649 5650 5651 5653 5655 5656 5660 5662 5666 5668 5671 5674 5677 5680 5683 5686 5688 5691 5695 5698 5702 5705 5709 5713 5716 5719 5723 5727 5730 5733 5736 5738 5740 5742 5744 5746
5643 5642 5641 5641 5642 5643 5644 5645 5646 5646 5646 5649 5651 5652 5656 5658 5661 5664 5666 5668 5671 5673 5676 5679 5682 5684 5688 5691 5694 5698 5701 5704 5708 5711 5714 5717 5721 5724 5726 5729 5731 5733 5735 5737
5641 5641 5640 5640 5640 5641 5641 5642 5643 5643 5644 5646 5648 5648 5653 5654 5656 5658 5660 5663 5664 5667 5670 5672 5675 5677 5680 5683 5687 5690 5693 5696 5699 5702 5706 5708 5711 5714 5717 5719 5722 5724 5726 5728
5640 5640 5639 5639 5639 5639 5639 5639 5640 5641 5641 5643 5644 5646 5648 5650 5651 5653 5655 5657 5659 5661 5664 5666 5668 5670 5673 5676 5679 5682 5685 5688 5691 5694 5697 5699 5702 5705 5707 5710 5712 5715 5717 5718
5639 5639 5638 5637 5637 5637 5637 5637 5637 5637 5637 5638 5640 5642 5644 5645 5647 5648 5650 5651 5653 5655 5657 5659 5661 5663 5665 5668 5670 5673 5676 5679 5682 5685 5688 5690 5693 5696 5698 5700 5703 5705 5707 5709
5637 5637 5636 5635 5634 5634 5635 5635 5634 5634 5634 5635 5635 5641 5640 5641 5642 5643 5644 5645 5647 5648 5650 5652 5654 5656 5658 5660 5663 5665 5668 5671 5674 5676 5679 5682 5684 5687 5689 5691 5694 5696 5698 5700
5634 5634 5633 5633 5632 5632 5632 5632 5631 5632 5631 5631 5631 5637 5635 5636 5636 5637 5638 5639 5640 5642 5644 5645 5647 5649 5651 5653 5655 5657 5660 5662 5665 5668 5670 5673 5675 5677 5680 5682 5684 5686 5688 5690
5631 5631 5630 5629 5631 5629 5628 5628 5628 5627 5627 5627 5627 5633 5630 5630 5630 5631 5632 5633 5634 5635 5637 5639 5640 5642 5644 5645 5647 5649 5651 5653 5656 5659 5661 5664 5666 5668 5670 5672 5674 5676 5678 5680
5628 5627 5627 5627 5625 5624 5624 5624 5623 5622 5622 5622 5623 5624 5626 5624 5625 5625 5626 5627 5628 5629 5630 5632 5633 5635 5636 5637 5639 5640 5642 5644 5647 5649 5652 5654 5657 5659 5661 5662 5664 5666 5668 5670
5624 5623 5623 5622 5621 5620 5620 5620 5619 5618 5617 5618 5618 5618 5619 5618 5618 5619 5620 5621 5622 5623 5624 5625 5626 5627 5629 5630 5631 5632 5634 5636 5638 5640 5643 5645 5647 5649 5651 5653 5654 5656 5658 5660
5619 5619 5618 5618 5617 5616 5615 5615 5614 5613 5612 5612 5612 5613 5612 5612 5612 5613 5613 5614 5615 5616 5617 5618 5619 5620 5621 5622 5623 5624 5625 5627 5629 5631 5633 5635 5637 5639 5641 5643 5644 5646 5648 5649
5615 5614 5613 5613 5612 5610 5610 5611 5609 5608 5607 5607 5606 5607 5606 5606 5606 5606 5607 5608 5608 5609 5610 5611 5611 5612 5613 5614 5615 5615 5617 5618 5620 5622 5624 5626 5628 5629 5631 5633 5634 5636 5638 5639
5611 5609 5607 5606 5606 5605 5608 5604 5604 5603 5602 5601 5600 5600 5600 5600 5600 5600 5600 5601 5602 5602 5603 5603 5604 5604 5605 5605 5606 5607 5608 5609 5611 5612 5614 5616 5617 5619 5621 5623 5624 5626 5628 5629
5606 5604 5602 5600 5599 5599 5601 5600 5598 5597 5598 5597 5595 5594 5594 5593 5593 5594 5593 5594 5594 5595 5595 5595 5596 5596 5596 5597 5597 5598 5599 5600 5602 5603 5605 5606 5608 5609 5611 5613 5614 5615 5617 5618
5600 5599 5597 5595 5593 5593 5596 5594 5591 5591 5592 5591 5589 5588 5587 5587 5587 5588 5586 5587 5587 5587 5587 5587 5588 5588 5588 5588 5589 5589 5590 5591 5592 5594 5595 5596 5598 5599 5601 5602 5603 5605 5606 5607
5594 5592 5591 5589 5586 5587 5588 5587 5586 5586 5587 5585 5583 5582 5581 5581 5581 5581 5580 5579 5579 5579 5579 5579 5579 5579 5579 5579 5580 5580 5581 5582 5583 5584 5585 5586 5588 5589 5590 5592 5593 5594 5595 5596
5587 5586 5585 5582 5581 5584 5581 5580 5580 5580 5578 5577 5576 5576 5575 5574 5574 5573 5573 5572 5572 5572 5571 5571 5571 5571 5571 5571 5571 5572 5572 5573 5574 5575 5576 5576 5578 5579 5580 5581 5582 5583 5584 5585
5581 5581 5578 5578 5579 5577 5575 5574 5573 5572 5571 5570 5569 5569 5568 5567 5567 5566 5566 5565 5564 5564 5564 5563 5563 5563 5563 5563 5563 5563 5563 5564 5565 5565 5566 5566 5567 5569 5570 5571 5572 5573 5573 5575
5575 5573 5572 5571 5571 5570 5568 5567 5566 5565 5564 5563 5562 5562 5561 5560 5559 5559 5558 5557 5557 5556 5555 5555 5555 5554 5554 5554 5554 5554 5555 5555 5555 5556 5556 5557 5558 5559 5560 5561 5561 5562 5563 5564
5568 5566 5565 5564 5564 5563 5562 5560 5559 5558 5557 5556 5555 5554 5553 5553 5552 5551 5550 5549 5548 5548 5547 5546 5546 5546 5546 5546 5546 5546 5546 5546 5546 5546 5547 5547 5548 5548 5550 5551 5551 5552 5553 5553
5562 5561 5559 5558 5557 5555 5555 5553 5552 5550 5550 5549 5548 5547 5546 5545 5544 5543 5542 5541 5540 5539 5538 5538 5537 5537 5537 5537 5537 5537 5537 5537 5537 5537 5537 5538 5538 5539 5540 5541 5542 5542 5543 5543